Weather History for Venice, Italy

Change the Weather History Date:

Monday, September 9, 2013

  Actual Average Record
Temperature  
Mean Temperature 75 °F -  
Max Temperature 84 °F 71 °F 84 °F (2013)
Min Temperature 66 °F 55 °F 53 °F (1996)
Cooling Degree Days 10    
Growing Degree Days 25 (Base 50)    
Moisture  
Dew Point 63 °F    
Average Humidity 66    
Maximum Humidity 88    
Minimum Humidity 37    
Precipitation  
Precipitation 0.00 in 0.09 in - ()
Sea Level Pressure  
Sea Level Pressure 29.94 in    
Wind  
Wind Speed 8 mph ()    
Max Wind Speed 22 mph    
Max Gust Speed -    
Visibility 6.2 miles    
Events      
Averages and records for this station are not official NWS values.
T = Trace of Precipitation, MM = Missing Value Source: Averaged Metar Reports

Daily Weather History Graph

Daily Weather History Graph

Search for Another Location

Airport:

Trip Planner

Search our weather history database for the weather conditions in past years. The results will help you decide how hot, cold, wet, or windy it might be!

Date:

Astronomy

Sep. 09, 2013 Rise Set
Actual Time 6:41 AM CEST 7:33 PM CEST
Civil Twilight 6:11 AM CEST 8:03 PM CEST
Nautical Twilight 5:35 AM CEST 8:38 PM CEST
Astronomical Twilight 4:58 AM CEST 9:16 PM CEST
Moon 10:59 AM CEST (9/9) 9:22 PM CEST (9/9)
Length of Visible Light 13h 51m
Length of Day
12h 51m
Waxing Crescent, 16% of the Moon is Illuminated
Sep 9
Waxing Crescent
Sep 12
First Quarter
Sep 19
Full
Sep 27
Last Quarter
Oct 5
New

Hourly Weather History & Observations

Time (CEST) Temp. Heat Index Dew Point Humidity Pressure Visibility Wind Dir Wind Speed Gust Speed Precip Events Conditions
12:20 AM 77.0 °F - 68.0 °F 74% 30.01 in 6.2 mi South 8.1 mph - N/A   Partly Cloudy
12:50 AM 77.0 °F - 68.0 °F 74% 30.01 in 6.2 mi South 10.4 mph - N/A   Scattered Clouds
1:20 AM 73.4 °F - 66.2 °F 78% 30.01 in 6.2 mi South 8.1 mph - N/A   Scattered Clouds
1:50 AM 75.2 °F - 66.2 °F 73% 29.98 in 6.2 mi South 8.1 mph - N/A   Scattered Clouds
2:20 AM 75.2 °F - 66.2 °F 73% 29.98 in 6.2 mi South 5.8 mph - N/A   Scattered Clouds
2:50 AM 75.2 °F - 68.0 °F 78% 29.98 in 6.2 mi Variable 3.5 mph - N/A   Scattered Clouds
3:20 AM 75.2 °F - 68.0 °F 78% 29.95 in 6.2 mi South 5.8 mph - N/A   Scattered Clouds
3:50 AM 75.2 °F - 68.0 °F 78% 29.98 in 6.2 mi SSW 6.9 mph - N/A   Scattered Clouds
4:20 AM 75.2 °F - 68.0 °F 78% 29.95 in 6.2 mi SSW 11.5 mph - N/A   Scattered Clouds
4:50 AM 75.2 °F - 66.2 °F 73% 29.95 in 6.2 mi SSW 12.7 mph - N/A   Mostly Cloudy
5:20 AM 73.4 °F - 66.2 °F 78% 29.95 in 6.2 mi SSW 9.2 mph - N/A   Mostly Cloudy
5:50 AM 73.4 °F - 66.2 °F 78% 29.95 in 6.2 mi SW 10.4 mph - N/A   Mostly Cloudy
6:20 AM 71.6 °F - 64.4 °F 78% 29.92 in 6.2 mi SW 9.2 mph - N/A   Partly Cloudy
6:50 AM 69.8 °F - 64.4 °F 83% 29.92 in - SW 9.2 mph - N/A   Clear
7:20 AM 69.8 °F - 64.4 °F 83% 29.92 in 6.2 mi SW 5.8 mph - N/A   Partly Cloudy
7:50 AM 69.8 °F - 64.4 °F 83% 29.92 in 6.2 mi SW 6.9 mph - N/A   Partly Cloudy
8:20 AM 71.6 °F - 68.0 °F 88% 29.92 in - SSW 8.1 mph - N/A   Clear
8:50 AM 73.4 °F - 68.0 °F 83% 29.92 in - SW 9.2 mph - N/A   Clear
9:20 AM 75.2 °F - 68.0 °F 78% 29.92 in - SSW 9.2 mph - N/A   Clear
1:20 PM 80.6 °F 81.1 °F 59.0 °F 48% 29.92 in 6.2 mi WSW 11.5 mph - N/A   Partly Cloudy
1:50 PM 82.4 °F 82.5 °F 59.0 °F 45% 29.92 in 6.2 mi SW 10.4 mph - N/A   Partly Cloudy
2:20 PM 84.2 °F 83.8 °F 59.0 °F 42% 29.92 in 6.2 mi SW 9.2 mph - N/A   Partly Cloudy
2:50 PM 84.2 °F 84.4 °F 60.8 °F 45% 29.92 in 6.2 mi SW 10.4 mph - N/A   Partly Cloudy
3:20 PM 84.2 °F 83.8 °F 59.0 °F 42% 29.92 in 6.2 mi SSW 10.4 mph - N/A   Partly Cloudy
3:50 PM 82.4 °F 82.5 °F 59.0 °F 45% 29.92 in 6.2 mi SSW 10.4 mph - N/A   Partly Cloudy
4:20 PM 82.4 °F 82.0 °F 57.2 °F 42% 29.89 in 6.2 mi SW 12.7 mph - N/A   Partly Cloudy
4:50 PM 84.2 °F 83.0 °F 55.4 °F 37% 29.89 in 6.2 mi SSW 11.5 mph - N/A   Partly Cloudy
5:20 PM 84.2 °F 83.5 °F 57.2 °F 40% 29.89 in 6.2 mi SW 8.1 mph - N/A   Partly Cloudy
5:50 PM 84.2 °F 83.8 °F 59.0 °F 42% 29.92 in 6.2 mi South 10.4 mph - N/A   Partly Cloudy
6:20 PM 82.4 °F 81.7 °F 55.4 °F 39% 29.92 in 6.2 mi SSW 6.9 mph - N/A   Partly Cloudy
6:50 PM 82.4 °F 82.5 °F 59.0 °F 45% 29.92 in - South 6.9 mph - N/A   Clear
7:20 PM 78.8 °F - 64.4 °F 61% 29.92 in - SE 5.8 mph - N/A   Clear
7:50 PM 77.0 °F - 68.0 °F 74% 29.92 in - Variable 3.5 mph - N/A   Clear
8:20 PM 77.0 °F - 68.0 °F 74% 29.92 in 6.2 mi Variable 3.5 mph - N/A   Partly Cloudy
8:50 PM 77.0 °F - 68.0 °F 74% 29.95 in 6.2 mi Variable 3.5 mph - N/A   Scattered Clouds
9:20 PM 69.8 °F - 59.0 °F 68% 29.98 in 6.2 mi NNE 18.4 mph - N/A   Scattered Clouds
9:50 PM 68.0 °F - 57.2 °F 68% 29.98 in 6.2 mi NNE 18.4 mph - N/A   Partly Cloudy
10:20 PM 69.8 °F - 59.0 °F 68% 29.98 in 6.2 mi NNE 21.9 mph - N/A   Partly Cloudy
10:50 PM 68.0 °F - 57.2 °F 68% 29.98 in 6.2 mi NNE 17.3 mph - N/A   Scattered Clouds
11:20 PM 66.2 °F - 57.2 °F 73% 30.01 in 6.2 mi NNE 15.0 mph - N/A   Scattered Clouds
11:50 PM 66.2 °F - 57.2 °F 73% 30.01 in 6.2 mi NNE 13.8 mph - N/A   Scattered Clouds